Погода в Ейске

Хотите узнать прогноз погоды в Ейске? Тогда Вам сюда: Погода в Ейске

Поиск расширенной информации на нашем сайте:

Полезная информация:

Новости сайта



02.01.2020
Опубликован Долгосрочный прогноз погоды по городам России и ближнего зарубежья на январь 2020 года.
Карты: Прогноз на январь и февраль 2020 года, Сравнение прогнозируемой аномалии приземной температуры воздуха на январь 2020 года по разным моделям.




Погода в Ейске - сегодня

Время (UTC), дата Ветер
(°,м/с) 
Видим.   Явления Облачность Т
(°С)
Тd
(°С)
f(%) Тe
(°С)
Pmin
(гПа)
dP
(гПа)
Po
(мм)
O2
(г/м3)
Тmin Tmax R s Состояние
почвы
15 18.10.20 330 (СЗ) 7-11  10 км    10/3 600 м верхняя 
[Sc|Ci fib]
+20.8 +7.2 41 +21  1011.8  0.7  757  282    +23.1       
18 18.10.20 280 (З) 10 км    6/6 600 м 
[Sc diur, vesp]
+16.2 +13.5 84 +23  1015.9  1.1  760  286           
21 18.10.20 030 (СВ) 10 км  {ливн. осадки}  10/0 
[Sc diur, vesp]
+17 +11.7 71 +20  1016.7  0.8  760  286           
00 19.10.20 040 (СВ) 10 км  {ливн. осадки}  10/10 600 м 
[Sc diur, vesp]
+15.8 +10.3 70 +17  1017.2  0.8  761  288           
03 19.10.20 070 (В) 10 км    10/10 600 м 
[Sc diur, vesp]
+14.8 +9.9 72 +16  1018  0.8  761  289  +14.8    0.0    сухая 
06 19.10.20 070 (В) 10 км    10/3 600 м средняя, верхняя 
[Sc diur, vesp|Ac trans|Ci fib]
+16.2 +8.6 61 +16  1018.4  0.4  762  288  +14.4         
09 19.10.20 090 (В) 10 км    10/10 600 м 
[Sc diur, vesp]
+16.9 +8.5 58 +17  1017.9  -0.5  761  287           
12 19.10.20 030 (СВ) 4000 м  ливневой дождь  10/10 300 м кучево-дожд. 
[Cb calv]
+13.8 +11.8 88 +16  1018.1  0.2  761  290           
15 19.10.20 020 (С) 10 км  слаб. ливневой дождь  10/10 300 м кучево-дожд. 
[Cb calv]
+12.8 +11.2 90 +14  1019.1  0.9  762  291    +17.3  10     
18 19.10.20 360 (С) 7-10{11}  10 км  {ливн. осадки}  10/10 600 м 
[Sc diur, vesp]
+13.3 +8.8 74 +12  1021.7  2.6  764  292           
21 19.10.20 340 (С) 7{10}  10 км    5/5 600 м 
[Sc diur, vesp]
+12.9 +7.4 69 +12  1023.5  1.8  765  293           
00 20.10.20 320 (СЗ) 10 км    ясно 
+12.4 +6.7 68 +11  1024.4  0.9  766  294           
03 20.10.20 360 (С) 10 км    ясно 
+11.1 +6.6 74 +10  1025.2  0.7  767  296  +11.1    0.8    влажная 
06 20.10.20 340 (С) 10 км    3/3 600 м 
[Cu med, cong]
+11.3 +7.8 79 +12  1026.5  1.3  768  296  +10.8         
09 20.10.20 340 (С) 10 км    3/3 600 м 
[Cu med, cong]
+12.3 +6 65 +12  1026.7  0.3  768  295           
12 20.10.20 300 (СЗ) 10 км    3/3 600 м 
[Cu med, cong]
+12.9 +5.5 61 +12  1026  -0.7  767  294           
15 20.10.20 240 (ЮЗ) 10 км    4/4 600 м кучево-дожд. 
[Cb calv]
+10.5 +5.8 73 +11  1026.2  -0.1  767  297    +13       
18 20.10.20 350 (С) 7-10{10}  10 км    3/3 600 м 
[Cu med, cong]
+12.5 +3.5 54 +11  1026.7  0.5  768  295           
21 20.10.20 350 (С) 7-10{10}  10 км    ясно 
+11.9 +2 51 +10  1028  1.4  769  297           
00 21.10.20 010 (С) 6{10}  10 км    ясно 
+10.7 +3.1 59 +9  1028.7  0.7  769  298           
03 21.10.20 030 (СВ) 10 км    ясно 
+9.5 +3.1 64 +9  1029.7  770  299  +9.2         
06 21.10.20 040 (СВ) 10 км    ясно 
+10.9 +2.4 56 +11  1030.7  771  298           
09 21.10.20 020 (С) 10 км    3/0 верхняя 
[Ci fib]
+12 +1.9 50 +12  1030.5  -0.2  771  297           
12 21.10.20 350 (С) 10 км    3/0 верхняя 
[Ci fib]
+12.7 +1.3 46 +13  1029  -1.4  770  296           
15 21.10.20 220 (ЮЗ) 10 км    10/0 верхняя 
[Ci fib]
+10.2 +2.8 60 +11  1027.8  -1.2  769  298    +12.9       
Время (UTC), дата Ветер
(°,м/с) 
Видим.   Явления Облачность Т
(°С)
Тd
(°С)
f(%) Тe
(°С)
Pmin
(гПа)
dP
(гПа)
Po
(мм)
O2
(г/м3)
Тmin Tmax R s Состояние
почвы

Для получения пояснительной информации подведите курсор к названию столбца.

ПОГОДА в Ейске - архив

Всё, что Вы хотите узнать о погоде в Ейске - удобно и подробно!

Выберите нужную дату (начиная с 1 января 2019* года) и нажмите кнопку "Найти".
Будут отображены архивные сводки погоды по пункту Ейск, начиная с указанной даты.


Отображать данные в формате CSV (для использования в таблицах Excel)


Внимание! Наш архив погоды предназначен исключительно для личного некоммерческого использования в познавательных целях. Если Вам необходимы официальные справки о состоянии погоды (для производственных, юридических, коммерческих и т.п. целей), обращайтесь в органы Росгидромета.

*Примечание: данная дата относится к архиву по метеостанциям СССР (Россия, СНГ, Балтия).
Архив по метеостанциям Зарубежной Европы и Азии (кроме Китая) хранится 10 дней, по другим регионам земного шара (Китай, Африка, Америка, Австралия, Океания) - 1 день.

Ейск - район местоположения метеостанции


Название, широта, долгота, высота метеостанции:
Ейск 46.8°ш. 38.3°д. 3 м над ур. моря [Российская Федерация]

Дополнительная информация

В oтличие oт бoльшинства пoгoдных сайтoв мы публикуем пoдрoбную метеoинфoрмацию в детальнoм прoфессиoнальнoм фoрмате.

Характеристики температуры и влажнoсти вoздуха измеряются на высoте 2 м в тени вдали oт зданий и деревьев.
Скoрoсть ветра измеряется на высoте 10 м (на урoвне рoста челoвека скoрoсть ветра ниже в 1.5-2 раза). Если метеoстанция нахoдится в гoрoде или в лесу, тo скoрoсть ветра занижена на 2-4 м/с пo сравнению с oткрытым местoм. Скoрoсть ветра над акватoриями крупных рек и oзёр, а также на вершинах хoлмoв на 2-5 м/с выше, чем в oбычных услoвиях.
Атмoсфернoе давление в разных тoчках местнoсти мoжет значительнo oтличаться oт давления на метеoстанции, в зависимoсти oт услoвий рельефа (при пoдъёме на 10 м давление пoнижается примернo на 1 мм рт.ст.).